軌道要素
Epoch 2020 Apr. 21.0 TT = JDT 2458960.5
T 2020 Apr. 7.94189 TT Rudenko
q 3.4417356 (2000.0) P Q
z +0.0041418 Peri. 71.35547 +0.17417490 -0.41759275
+/-0.0000011 Node 63.16899 -0.12879428 -0.90750830
e 0.9857452 Incl. 92.02501 +0.97625567 -0.04522145
From 260 observations 2019 Sept. 17-2021 June 3, mean residual 0".5.
|